Terug naar catalogus

OPS 4682 DEB

ActiefPO
NORAD 38456·DEBRIS·🇺🇸 United States

Gelanceerd Apr 3, 1965 vanaf Vandenberg Space Force Base

Loading…

Volgende Passages (komende 24 uur)

TLE

VersSource: Space-Track

Epoch: Sep 13, 2026, 13:43 UTC

1 38456U 65027FM  26256.57201554 -.00000246  00000-0 -87364-3 0  9991
2 38456  90.2687   6.0084 0022912 140.8374 219.4410 12.97477239101397

Volg OPS 4682 DEB in realtime met AllMySat

Download on the App Store